{"data":{"norad_id":64061,"epoch":"2026-09-21T16:50:01.701312Z","epoch_age_seconds":91720,"freshness":"FRESH","line1":"1 64061U 25105D   26264.70140858  .00000000  00000+0  87959-4 0  9994","line2":"2 64061  44.9863 312.6478 0008503 128.6084 231.5511 13.99165455 68728","mean_motion":13.99165455,"eccentricity":0.0008503,"inclination_deg":44.9863,"raan_deg":312.6478,"arg_perigee_deg":128.6084,"mean_anomaly_deg":231.5511,"bstar":8.7959e-5,"rev_number":6872,"period_min":102.91849293835,"perigee_km":890.50067776332,"apogee_km":902.87224253966,"semimajor_km":7274.8234601515,"source":"CELESTRAK","updated_at":"2026-09-22T09:00:29.525085Z"}}